GLOBALSTAR M093

Last updated on Sat Sep 05 2026 00:03:16 GMT+0000 (Coordinated Universal Time)

1 39073U 13005B 26247.55776279 -.00000099 00000+0 27710-4 0 9999 2 39073 52.0135 355.1021 0000847 124.5693 235.5254 12.62266866626887
UTC large
Height (km)
Speed (km/s)
/
Latitude / Longitude
Inclination (degrees)
Orbital Period (minutes)
Azimuth
Elevation
Range (km)
Doppler Factor

Next 0 passes for location: London (51.5072 / 0.1276)

No passes found over London.
GLOBALSTAR M093